Temperature
5 6 5 5 4 3 3 4 5 7 7 8 9 8 7 6 6 5 4 4 4 3 3 3 2 2 2 2 2 2 2 2 2 2 2 2 2 2 2 3 3 3 4 4
4 5 5 4 5 5 4 4 5 5 6 7 7 6 6 5 5 4 4 4 3 3 2 2 2 2 2 2 2 2 2 2 2 2 2 2 2 2 2 3 3 3 4 4
5 5 4 5 6 5 5 5 5 5 6 7 6 6 5 5 4 4 3 3 3 2 2 2 2 1 1 1 2 1 1 2 2 2 2 2 2 2 2 2 3 3 3 4
4 3 4 8 6 6 5 5 5 5 6 6 5 5 4 4 3 3 3 2 2 2 1 1 1 1 1 1 1 1 1 2 2 2 1 2 2 2 2 2 3 3 3 4
3 4 6 7 5 4 4 5 6 5 5 5 4 4 4 4 3 3 2 1 1 1 1 1 1 1 1 1 1 1 1 1 1 1 1 1 2 2 2 2 3 3 3 3
3 4 5 8 5 4 4 5 6 5 5 5 4 4 5 4 3 2 2 1 1 1 1 1 1 1 0 1 1 1 1 1 1 1 1 1 1 2 2 2 2 3 3 3
3 4 6 7 3 3 5 6 5 4 4 4 4 4 3 2 2 1 1 1 1 0 0 0 0 0 0 0 0 1 1 1 1 1 1 1 1 2 2 2 2 2 3 3
3 3 5 5 2 4 6 5 4 4 4 3 3 2 2 1 1 1 0 0 0 -0 -0 -0 -0 -0 -0 -0 0 0 0 1 1 1 1 1 1 1 2 2 2 2 2 2
4 6 6 4 4 4 4 4 3 3 3 2 2 1 1 1 0 0 -0 -0 -0 -1 -0 -0 -0 -0 -0 -0 -0 -0 0 0 0 1 1 1 1 1 1 1 2 2 2 2
3 4 5 3 3 3 3 3 3 2 2 1 1 1 0 -0 -0 -0 -1 -1 -1 -1 -1 -1 -1 -1 -1 -1 -1 -1 -1 -0 -0 0 0 0 0 0 1 1 1 1 1 1
2 4 3 3 3 3 3 2 2 2 1 1 0 -0 -0 -1 -1 -1 -1 -1 -1 -1 -1 -1 -1 -1 -1 -1 -1 -1 -1 -1 -1 -1 -0 -0 0 0 0 1 1 1 1 1
4 5 4 4 3 3 2 2 1 1 0 0 -0 -1 -1 -1 -1 -1 -2 -2 -2 -2 -2 -2 -2 -1 -1 -1 -2 -2 -2 -1 -1 -1 -1 -1 -0 -0 0 1 1 1 1 1
4 3 3 3 2 2 1 1 1 0 -0 -1 -1 -1 -1 -1 -2 -2 -2 -2 -2 -2 -2 -2 -2 -2 -2 -2 -2 -2 -2 -2 -2 -1 -1 -1 -1 -1 -1 0 1 1 1 1
2 2 1 1 1 1 1 0 -0 -0 -1 -1 -1 -1 -2 -2 -2 -2 -2 -2 -3 -3 -3 -3 -3 -2 -2 -2 -2 -2 -2 -2 -2 -2 -2 -2 -1 -1 -1 -1 -0 0 1 1
1 1 1 1 0 0 -0 -1 -1 -1 -1 -2 -2 -2 -2 -2 -3 -3 -3 -3 -3 -3 -3 -3 -3 -2 -2 -2 -2 -2 -2 -2 -2 -2 -2 -2 -2 -1 -1 -1 -1 -1 -0 0
0 0 -0 -0 -1 -1 -1 -1 -2 -2 -2 -2 -2 -2 -3 -3 -3 -3 -3 -4 -4 -4 -4 -3 -3 -3 -3 -3 -3 -3 -2 -2 -2 -2 -2 -2 -2 -2 -2 -1 -1 -1 -1 -0
-1 -1 -1 -2 -2 -2 -2 -2 -2 -2 -3 -3 -3 -3 -3 -3 -3 -4 -4 -4 -4 -4 -4 -4 -4 -3 -3 -3 -3 -3 -3 -3 -3 -3 -3 -3 -2 -2 -2 -2 -1 -1 -1 -0
-1 -1 -1 -2 -2 -2 -2 -3 -3 -3 -3 -3 -3 -4 -4 -4 -4 -4 -4 -4 -4 -4 -4 -4 -4 -4 -4 -3 -3 -3 -3 -3 -3 -3 -3 -3 -3 -2 -2 -2 -1 -1 -1 -1
-2 -2 -2 -2 -3 -3 -3 -3 -3 -3 -4 -4 -4 -4 -4 -4 -5 -5 -5 -5 -5 -5 -4 -4 -4 -4 -4 -3 -3 -3 -3 -3 -3 -3 -3 -3 -3 -2 -2 -2 -2 -1 -1 -1
-2 -3 -3 -3 -3 -3 -3 -3 -4 -4 -4 -4 -4 -4 -5 -5 -5 -5 -5 -5 -5 -5 -5 -5 -5 -4 -4 -4 -4 -4 -3 -3 -3 -3 -3 -3 -3 -2 -2 -2 -2 -2 -2 -1
-3 -3 -3 -3 -4 -4 -4 -4 -4 -4 -5 -5 -5 -5 -5 -5 -5 -6 -6 -6 -5 -5 -5 -5 -5 -5 -5 -4 -4 -4 -4 -3 -3 -3 -3 -3 -3 -3 -2 -2 -2 -2 -2 -1
-4 -4 -4 -4 -4 -4 -4 -5 -5 -5 -5 -5 -5 -5 -5 -6 -6 -6 -6 -6 -6 -6 -6 -6 -5 -5 -5 -5 -5 -4 -4 -4 -4 -3 -3 -3 -3 -3 -3 -3 -2 -2 -2 -1
-4 -4 -4 -5 -5 -5 -5 -5 -5 -5 -5 -6 -6 -6 -6 -6 -6 -7 -7 -6 -6 -6 -6 -6 -6 -6 -5 -5 -5 -4 -4 -4 -4 -4 -3 -3 -3 -3 -3 -3 -3 -2 -2 -2
-5 -5 -5 -5 -5 -5 -5 -5 -6 -6 -6 -6 -6 -6 -6 -7 -6 -6 -7 -6 -6 -6 -6 -6 -6 -6 -6 -5 -5 -5 -5 -4 -4 -4 -4 -3 -3 -3 -3 -3 -3 -2 -2 -2
-5 -5 -5 -6 -6 -6 -6 -6 -6 -6 -6 -6 -7 -7 -7 -7 -7 -7 -7 -7 -7 -7 -6 -6 -6 -6 -6 -6 -5 -5 -5 -5 -5 -4 -4 -4 -4 -3 -3 -3 -3 -3 -2 -2
-6 -6 -6 -6 -7 -7 -7 -7 -7 -7 -7 -7 -7 -7 -7 -7 -7 -7 -7 -7 -7 -7 -7 -7 -7 -6 -6 -6 -6 -5 -5 -5 -5 -4 -4 -4 -4 -3 -3 -3 -3 -3 -3 -2
-7 -7 -7 -7 -7 -7 -8 -8 -8 -8 -8 -8 -8 -8 -8 -8 -8 -8 -8 -8 -8 -7 -7 -7 -7 -7 -6 -6 -6 -6 -5 -5 -5 -5 -4 -4 -4 -4 -3 -3 -3 -3 -3 -2
Wind_Speed
14 13 10 13 13 15 17 17 14 18 22 25 21 19 19 18 17 17 16 16 16 16 15 14 14 14 14 15 14 13 13 13 13 13 12 10 9 9 9 10 10 10 9 9
11 13 14 18 20 20 21 22 24 26 27 24 21 17 16 16 16 16 16 17 17 17 16 15 15 15 15 15 14 13 14 14 13 12 11 10 9 9 9 9 9 8 7 8
8 7 8 14 16 19 16 17 16 20 20 18 16 15 15 15 15 16 17 17 17 16 15 15 16 15 15 15 13 13 13 13 12 12 11 10 9 9 9 9 8 8 7 7
5 4 11 8 3 10 15 17 19 18 18 16 15 16 16 15 14 15 16 16 16 16 16 15 15 15 14 14 13 13 13 12 11 10 10 10 9 8 8 8 7 7 7 6
5 8 13 10 6 7 10 12 14 17 17 16 14 14 14 11 11 14 15 15 15 15 15 15 15 14 14 13 13 13 12 12 10 9 9 9 10 9 8 7 6 6 6 6
7 8 10 6 4 6 4 9 7 9 12 12 10 10 12 11 12 14 15 15 15 15 15 14 14 13 13 13 13 13 12 12 10 9 9 9 10 10 8 7 6 6 6 6
14 12 12 5 7 9 6 6 2 6 8 9 9 11 12 13 13 14 15 15 15 15 14 13 13 12 12 13 13 13 12 11 9 9 9 9 9 8 8 6 5 6 7 6
11 12 12 7 10 10 7 4 4 6 8 9 12 13 13 14 14 14 15 15 14 13 14 13 12 12 12 13 13 12 11 11 10 10 9 8 9 8 7 5 5 5 4 5
11 11 4 10 9 8 5 6 7 8 9 10 11 13 14 14 14 14 14 14 13 13 14 13 12 11 13 13 12 11 11 10 9 9 8 7 7 7 6 5 4 4 3 3
9 12 10 10 10 9 9 10 10 10 10 10 12 13 14 13 13 14 13 13 12 12 13 13 12 12 12 12 10 10 10 10 9 8 8 8 6 5 5 4 4 4 3 3
11 12 11 11 13 12 11 11 11 10 10 10 11 13 13 13 13 13 12 12 11 11 12 13 13 12 12 11 10 10 10 9 8 8 8 7 7 6 6 5 5 5 4 4
13 11 9 11 9 10 11 11 11 11 11 10 10 11 12 12 12 12 12 12 12 12 13 13 13 12 11 10 8 8 8 8 7 6 6 6 6 6 6 6 8 8 7 6
14 12 12 12 11 9 9 10 9 9 10 10 10 10 11 11 11 11 12 12 12 12 13 13 12 11 11 9 8 8 8 8 6 6 6 5 5 5 6 6 5 5 5 5
12 10 11 11 10 8 8 8 7 7 8 8 8 8 9 10 11 11 11 12 12 12 12 12 12 12 11 9 8 8 8 7 7 6 6 5 5 5 4 4 5 4 3 3
12 12 11 9 7 6 6 5 5 6 6 7 7 7 8 10 11 11 11 11 11 11 12 12 12 12 11 9 8 8 7 6 6 5 5 5 4 4 4 4 4 4 3 3
8 8 8 8 8 7 5 5 6 7 7 7 7 8 9 10 10 10 10 10 10 11 12 11 12 12 10 10 9 7 6 8 7 5 5 4 4 4 4 3 4 3 3 3
7 7 7 7 7 6 6 6 6 6 6 7 8 8 9 9 9 10 10 10 10 10 11 11 11 11 10 9 8 6 6 6 7 5 4 4 4 4 4 3 3 3 3 3
7 7 6 6 5 5 5 4 4 5 6 7 7 7 8 8 9 10 11 11 10 10 10 10 10 11 10 9 7 6 5 5 4 4 4 4 4 4 4 3 3 4 3 3
2 2 2 2 3 3 3 3 4 4 5 5 6 7 8 8 9 9 10 10 10 11 12 11 13 11 10 10 8 6 5 5 4 4 4 5 5 4 3 3 3 3 3 2
2 2 1 1 0 1 2 3 3 4 4 5 6 7 8 8 9 9 9 9 8 9 11 12 11 10 9 9 9 6 5 5 4 4 4 4 4 4 3 3 3 3 2 1
2 2 1 1 1 1 2 2 3 4 5 5 5 7 8 9 9 8 8 9 9 10 11 12 9 8 8 8 9 6 5 5 4 4 4 4 4 4 3 3 2 2 2 1
2 1 1 1 1 2 3 3 3 4 5 5 6 7 8 9 9 9 8 8 10 12 10 8 8 9 10 10 6 6 5 5 4 4 4 4 3 3 3 2 2 2 2 2
1 1 1 1 2 3 4 4 4 4 5 6 7 8 8 8 7 8 9 8 8 12 10 8 10 12 12 7 6 5 5 5 4 4 4 3 3 3 3 3 2 2 2 2
1 1 1 2 2 2 4 5 5 5 6 7 7 7 8 8 7 7 7 11 13 13 9 10 12 12 10 6 5 5 5 5 4 4 4 3 3 3 3 2 2 2 2 2
1 2 2 2 2 3 4 5 6 6 6 6 7 7 6 6 7 8 8 9 12 12 9 10 11 11 7 5 5 5 5 4 4 4 3 3 3 3 2 2 2 2 2 2
2 2 2 3 3 3 4 4 5 5 6 7 7 7 7 7 8 8 7 8 10 10 8 7 7 7 6 5 5 5 4 4 4 4 4 3 3 2 2 2 2 2 2 3
2 2 2 3 3 3 4 4 5 6 6 7 8 8 8 8 7 8 8 7 7 7 6 6 6 6 5 5 5 5 4 4 3 3 3 3 2 2 2 2 1 2 2 3
Wind_Direction
255 263 253 249 243 222 220 231 246 263 270 280 290 299 303 304 305 306 307 308 310 311 310 309 309 310 310 307 306 305 305 304 301 301 300 289 282 281 281 281 277 271 259 251
259 252 254 260 254 241 237 241 248 263 273 278 289 295 296 300 304 305 307 310 312 313 311 309 310 311 310 307 306 306 305 305 304 304 304 300 285 284 283 286 280 276 264 260
259 266 273 261 246 232 230 229 236 251 262 283 292 295 298 302 302 301 305 310 311 311 309 307 308 308 306 306 306 305 304 305 305 304 303 304 297 283 282 284 280 275 271 269
255 259 247 256 206 219 230 242 236 246 265 281 289 296 297 293 294 299 305 308 310 310 308 306 306 305 304 306 305 304 305 306 307 305 303 303 303 293 285 283 274 276 275 271
223 248 267 267 220 200 221 255 240 244 263 278 291 299 292 292 295 298 304 307 308 308 306 304 304 305 306 305 305 306 307 306 304 303 302 300 300 295 294 288 280 280 275 272
221 238 251 262 166 170 200 263 237 238 261 279 291 295 303 319 310 305 307 309 310 309 307 305 305 307 304 303 304 306 307 307 304 301 297 295 296 295 294 287 277 279 278 277
229 240 258 254 151 158 220 271 240 239 262 274 272 278 298 306 304 305 307 309 310 308 306 306 307 307 302 301 300 303 305 305 302 299 296 296 297 294 292 289 281 284 286 281
217 231 247 171 158 199 245 299 273 274 276 276 277 286 295 300 303 307 309 310 312 309 307 308 308 305 302 302 304 305 306 306 303 301 301 301 302 302 300 298 289 286 286 292
210 228 271 175 206 233 271 278 281 281 283 281 282 288 295 299 302 305 307 309 310 308 307 308 308 306 302 303 306 308 308 308 307 309 308 308 304 303 304 300 291 286 289 288
241 253 257 243 250 258 264 271 275 279 281 280 282 289 294 297 300 304 306 308 310 309 307 308 309 305 302 304 306 307 308 308 310 310 310 310 308 303 302 301 299 298 289 287
249 264 274 258 252 259 266 270 271 273 272 273 278 285 291 295 297 301 304 307 308 306 306 306 307 306 306 306 306 307 307 307 309 308 305 308 307 303 298 291 283 288 287 277
248 250 250 266 268 263 263 265 267 272 277 277 276 282 288 292 296 300 303 306 307 306 306 307 308 308 308 307 306 305 305 308 309 308 306 305 309 314 312 293 302 297 292 288
255 262 262 271 274 270 264 266 270 270 271 278 282 283 287 292 297 300 303 305 305 306 307 307 308 308 308 308 304 300 296 298 301 302 300 300 303 307 315 324 325 308 300 303
253 258 262 262 265 265 264 268 272 272 273 277 283 287 291 295 299 301 302 304 306 307 308 308 309 308 309 309 303 299 296 294 293 292 292 290 291 294 297 307 317 327 332 321
249 248 253 262 264 265 267 268 270 274 282 288 290 292 296 298 299 301 304 308 308 310 311 312 310 309 312 310 303 297 293 291 290 292 292 290 290 295 299 300 301 306 321 339
252 252 248 247 253 261 261 259 264 274 283 289 295 298 299 298 298 301 306 309 310 311 313 313 310 310 313 312 308 300 295 294 293 291 291 291 290 293 295 294 296 297 302 312
235 244 244 248 250 253 254 257 263 272 280 287 294 299 302 303 305 308 311 311 309 306 309 309 309 312 312 310 306 300 297 298 297 292 290 289 289 289 287 284 288 293 290 290
234 237 239 241 240 245 254 261 266 275 283 292 299 301 302 303 304 307 311 313 313 312 313 313 313 314 313 313 309 301 295 293 293 292 292 290 289 289 285 285 290 295 294 295
199 200 210 224 236 238 250 265 278 287 295 298 299 299 300 301 303 306 310 312 312 313 316 320 320 319 315 314 312 300 296 293 294 294 291 291 292 289 285 284 285 290 286 284
110 112 120 122 254 264 268 288 298 300 303 302 302 303 305 307 309 309 308 304 301 302 308 313 315 314 313 313 312 300 294 289 289 288 286 286 287 288 286 282 279 281 269 255
110 104 97 78 0 332 315 308 305 305 308 305 300 300 301 305 308 307 307 305 308 312 312 312 313 313 312 313 309 301 295 288 285 284 283 283 284 283 282 279 274 273 248 227
117 113 81 18 340 330 327 320 311 307 309 308 307 304 304 305 308 307 299 295 303 312 315 310 310 313 316 313 306 302 296 289 282 279 277 276 276 277 274 271 267 271 244 215
105 81 22 335 321 317 319 318 312 308 306 306 304 303 302 301 303 304 305 306 308 311 313 306 312 316 318 316 310 304 300 296 292 284 278 277 275 269 263 263 259 258 232 206
61 23 352 337 333 324 319 319 318 312 306 301 297 297 299 302 302 298 294 303 311 312 309 309 314 316 318 316 311 308 306 303 301 297 288 281 275 266 255 247 245 244 210 186
26 358 342 334 325 315 311 314 316 314 312 309 309 308 302 295 295 302 304 304 309 312 310 312 315 316 316 311 311 309 308 303 300 299 290 281 274 264 251 238 231 211 187 173
352 333 319 311 304 304 307 308 308 311 313 313 314 314 313 310 305 304 305 307 309 312 312 310 312 313 311 310 308 307 305 304 304 302 294 286 274 264 252 235 228 195 177 166
354 343 333 328 326 320 313 307 305 307 309 309 310 312 314 315 314 315 314 313 314 314 314 313 313 311 309 308 307 306 304 303 301 297 294 291 279 259 243 234 215 183 162 155
Height
1478 1477 1479 1478 1478 1482 1483 1473 1468 1450 1445 1436 1436 1437 1436 1434 1431 1428 1425 1421 1417 1413 1408 1403 1398 1393 1389 1384 1379 1374 1369 1364 1359 1355 1351 1349 1346 1344 1342 1340 1339 1338 1337 1337
1476 1474 1474 1472 1466 1468 1468 1466 1460 1453 1444 1436 1436 1436 1433 1430 1427 1424 1421 1417 1413 1408 1403 1398 1393 1389 1384 1379 1374 1369 1364 1359 1354 1350 1346 1344 1341 1339 1337 1336 1334 1333 1332 1332
1466 1468 1470 1458 1449 1452 1453 1450 1451 1445 1436 1433 1433 1431 1430 1427 1424 1421 1417 1412 1408 1403 1399 1394 1389 1384 1379 1374 1369 1364 1359 1354 1350 1345 1342 1339 1337 1335 1333 1331 1330 1329 1328 1328
1468 1470 1461 1435 1440 1441 1442 1440 1440 1437 1433 1433 1431 1429 1426 1423 1420 1416 1412 1408 1403 1398 1393 1389 1384 1379 1374 1369 1365 1360 1355 1351 1346 1342 1338 1336 1333 1332 1330 1328 1327 1325 1325 1325
1466 1458 1441 1432 1436 1439 1440 1433 1431 1432 1430 1429 1427 1424 1419 1417 1415 1412 1408 1403 1399 1394 1389 1384 1379 1374 1369 1365 1361 1356 1352 1347 1343 1339 1336 1333 1330 1328 1327 1325 1324 1322 1322 1321
1461 1454 1438 1422 1432 1435 1437 1430 1425 1426 1425 1425 1424 1420 1413 1412 1410 1406 1402 1398 1393 1388 1383 1379 1374 1370 1365 1361 1357 1352 1348 1344 1340 1336 1333 1330 1328 1326 1324 1322 1321 1320 1319 1318
1451 1445 1428 1423 1431 1434 1432 1420 1421 1421 1421 1421 1420 1417 1414 1410 1406 1402 1398 1393 1388 1383 1378 1374 1370 1366 1361 1357 1353 1349 1344 1340 1337 1334 1331 1328 1325 1323 1321 1319 1318 1317 1316 1315
1441 1440 1426 1422 1428 1425 1418 1418 1418 1418 1417 1417 1414 1412 1409 1405 1401 1397 1393 1388 1383 1379 1374 1370 1366 1362 1357 1353 1349 1345 1341 1337 1334 1331 1329 1325 1322 1320 1319 1317 1315 1314 1313 1312
1423 1416 1413 1416 1415 1415 1416 1416 1415 1414 1413 1412 1409 1407 1404 1401 1396 1392 1388 1384 1379 1374 1369 1365 1361 1357 1353 1349 1346 1342 1338 1334 1331 1328 1326 1323 1321 1319 1317 1315 1314 1312 1311 1310
1419 1411 1412 1413 1412 1412 1413 1412 1411 1410 1409 1407 1405 1402 1399 1396 1392 1387 1383 1379 1375 1370 1365 1361 1357 1354 1350 1346 1342 1339 1335 1332 1329 1326 1323 1321 1320 1318 1316 1314 1312 1311 1310 1309
1413 1409 1409 1407 1407 1407 1408 1407 1406 1405 1404 1402 1400 1397 1394 1391 1387 1383 1379 1375 1371 1366 1362 1357 1353 1350 1346 1343 1340 1336 1333 1330 1327 1324 1322 1319 1317 1316 1314 1313 1312 1310 1309 1308
1401 1401 1403 1401 1401 1402 1402 1401 1401 1400 1398 1396 1395 1392 1389 1386 1382 1379 1375 1371 1366 1362 1358 1354 1350 1346 1343 1340 1337 1333 1330 1327 1325 1322 1320 1318 1315 1313 1312 1311 1310 1309 1308 1307
1395 1395 1397 1396 1396 1396 1396 1396 1395 1394 1393 1391 1389 1387 1385 1381 1378 1374 1370 1367 1363 1358 1354 1350 1346 1342 1339 1337 1334 1331 1328 1326 1323 1320 1318 1316 1314 1312 1310 1309 1309 1308 1307 1306
1390 1392 1391 1391 1391 1391 1391 1390 1390 1388 1387 1386 1384 1382 1380 1377 1373 1370 1366 1363 1359 1355 1350 1346 1343 1339 1336 1334 1331 1328 1326 1323 1321 1318 1316 1314 1313 1311 1310 1308 1306 1305 1306 1305
1385 1386 1386 1385 1385 1385 1386 1385 1384 1383 1382 1381 1380 1378 1375 1372 1369 1365 1362 1358 1354 1350 1347 1343 1339 1336 1333 1330 1328 1325 1323 1321 1319 1317 1314 1313 1311 1309 1308 1307 1306 1304 1304 1304
1379 1380 1380 1380 1380 1380 1381 1380 1380 1379 1378 1377 1375 1373 1371 1368 1365 1361 1358 1354 1350 1346 1343 1339 1336 1333 1330 1327 1324 1322 1320 1318 1316 1314 1313 1311 1309 1308 1307 1306 1305 1304 1303 1303
1374 1374 1375 1376 1376 1376 1376 1376 1376 1375 1374 1372 1371 1369 1366 1364 1360 1357 1354 1351 1347 1343 1340 1336 1333 1330 1327 1324 1321 1319 1317 1315 1313 1312 1310 1309 1307 1306 1305 1304 1304 1303 1303 1303
1369 1370 1371 1372 1372 1372 1372 1372 1372 1371 1370 1368 1367 1365 1362 1360 1357 1353 1350 1347 1343 1339 1336 1333 1330 1327 1324 1321 1319 1317 1314 1313 1311 1309 1308 1307 1306 1305 1304 1303 1302 1302 1302 1302
1366 1367 1368 1369 1369 1369 1369 1369 1368 1368 1367 1365 1363 1361 1359 1356 1353 1350 1347 1343 1339 1335 1332 1330 1327 1324 1321 1319 1317 1314 1312 1310 1309 1308 1306 1305 1304 1303 1302 1302 1301 1301 1301 1302
1364 1365 1366 1366 1367 1367 1366 1366 1365 1364 1363 1362 1360 1358 1355 1353 1350 1347 1343 1340 1337 1333 1330 1327 1323 1321 1318 1316 1314 1312 1311 1309 1307 1306 1305 1303 1302 1301 1301 1300 1300 1300 1300 1301
1363 1364 1364 1365 1365 1365 1364 1363 1362 1361 1360 1359 1357 1354 1352 1349 1346 1343 1339 1335 1333 1330 1327 1323 1320 1318 1316 1314 1312 1310 1309 1307 1305 1304 1303 1302 1301 1300 1299 1299 1299 1299 1299 1300
1362 1363 1363 1363 1363 1363 1362 1361 1360 1359 1357 1355 1353 1351 1348 1345 1342 1339 1336 1333 1329 1327 1323 1320 1318 1315 1313 1311 1309 1308 1306 1305 1303 1302 1301 1300 1299 1298 1298 1297 1297 1298 1299 1300
1361 1362 1362 1362 1361 1361 1360 1359 1358 1356 1354 1352 1350 1347 1345 1342 1339 1336 1332 1329 1326 1323 1320 1317 1315 1312 1310 1308 1307 1305 1303 1302 1301 1300 1299 1298 1297 1297 1296 1296 1297 1297 1298 1299
1361 1361 1361 1360 1360 1358 1357 1356 1355 1353 1351 1349 1346 1344 1341 1338 1335 1333 1330 1326 1323 1320 1317 1314 1312 1309 1307 1305 1304 1302 1301 1300 1298 1298 1297 1296 1296 1295 1295 1295 1295 1296 1298 1299
1360 1360 1359 1358 1357 1356 1354 1353 1351 1349 1347 1345 1342 1340 1338 1335 1332 1329 1326 1323 1320 1317 1314 1311 1309 1306 1304 1303 1301 1300 1298 1297 1296 1295 1295 1294 1294 1294 1294 1294 1295 1296 1297 1298
1359 1358 1357 1356 1355 1354 1352 1350 1348 1346 1343 1341 1338 1336 1333 1331 1328 1325 1322 1319 1317 1314 1311 1308 1306 1304 1302 1300 1299 1297 1296 1295 1294 1293 1293 1293 1293 1293 1293 1293 1294 1295 1296 1298
1357 1356 1355 1354 1353 1351 1349 1347 1345 1343 1340 1338 1335 1332 1329 1327 1324 1321 1318 1316 1313 1311 1308 1306 1303 1301 1300 1298 1296 1295 1294 1293 1292 1292 1291 1291 1291 1291 1292 1292 1293 1294 1296 1298